GFSSE_850_spd_000.txt.gz
Wind_Speed
10 13 15 13 12 13 14 12 15 15 15 13 12 11 11 13 12 12 13 12 12 10 9 8 7 7 7 7 7 7 5 3 1 1 2 4 5 5 5 7 6 5 5
6 10 12 11 10 9 10 12 13 13 14 11 13 11 10 12 14 13 13 13 12 10 10 9 8 7 4 6 5 6 7 6 3 3 2 4 4 6 5 6 7 6 8
8 8 11 12 10 8 8 11 10 14 15 12 13 14 12 11 12 13 12 12 11 12 11 10 8 8 3 4 4 5 7 7 5 3 4 4 3 4 4 4 5 5 2
9 7 11 9 9 10 9 10 10 12 15 16 15 15 15 14 13 12 13 13 12 11 12 11 12 8 4 5 5 4 5 6 5 6 5 3 3 1 3 3 2 3 4
10 9 9 8 8 9 11 12 13 16 17 18 19 19 19 18 16 15 14 13 12 11 12 12 11 9 7 5 6 6 2 4 5 6 5 3 3 5 5 6 8 9 4
7 9 9 8 9 10 11 13 15 17 18 19 19 19 19 19 18 17 18 17 16 14 13 11 10 10 8 7 7 8 5 2 1 4 5 3 7 9 6 13 13 14 14
9 9 10 10 11 11 12 14 15 17 17 17 18 18 17 19 19 18 18 18 18 16 15 14 13 9 8 9 7 10 9 8 4 5 6 11 13 12 13 15 16 16 16
12 8 11 15 13 13 14 15 15 15 16 17 18 18 20 20 21 20 20 19 18 16 16 14 12 12 11 10 9 10 12 12 10 9 6 11 11 13 18 18 18 13 11
12 13 10 14 15 10 12 13 12 14 15 16 17 17 16 17 17 19 18 18 17 16 16 14 14 12 10 11 11 12 13 13 17 13 12 12 18 15 17 18 13 12 13
10 14 12 12 12 9 10 12 10 13 15 16 18 16 13 10 12 13 14 18 15 14 14 14 13 13 11 11 13 12 16 18 14 18 23 17 15 18 19 20 16 14 13
14 9 13 11 10 9 7 8 8 10 11 15 17 18 16 13 13 11 12 9 13 15 14 15 16 16 11 11 10 11 15 16 12 12 20 21 19 22 20 19 16 14 10
10 13 7 10 9 8 5 4 6 11 13 16 19 21 20 18 18 16 12 9 11 7 8 10 12 16 17 10 9 10 15 15 15 14 15 17 20 22 19 18 12 11 8
9 10 9 6 5 3 2 4 8 12 15 18 20 22 22 21 20 19 17 15 14 14 13 8 6 10 17 17 12 11 15 15 17 18 15 17 23 22 19 20 14 13 13
9 9 8 6 4 2 2 6 9 13 16 18 19 20 21 20 20 19 18 15 14 13 11 10 8 6 8 15 20 17 17 19 20 24 26 28 25 24 19 21 19 15 12
8 9 9 7 5 4 4 7 11 13 16 17 18 19 20 20 20 20 19 18 16 16 16 17 15 11 9 9 14 22 18 19 22 23 23 27 27 25 21 20 21 21 13
10 11 11 9 7 6 8 10 12 13 15 17 18 18 19 19 18 19 19 19 19 20 21 20 17 15 14 13 15 15 21 23 27 29 28 28 29 26 24 22 21 24 19
14 13 12 10 9 10 10 11 12 14 15 16 16 16 18 19 19 20 19 19 20 22 23 23 22 20 17 15 16 18 22 26 26 28 33 29 32 31 27 22 25 24 23
16 15 16 13 12 11 11 11 11 13 14 15 15 16 16 18 18 18 18 18 19 22 22 22 22 24 23 21 20 21 21 26 33 33 34 34 36 37 30 26 28 26 26
18 16 16 14 13 12 11 10 11 12 14 15 15 15 15 15 16 17 18 18 20 23 22 23 24 20 22 23 25 26 26 27 27 32 33 38 41 38 39 35 29 32 29
20 19 17 15 13 12 11 11 11 11 13 15 16 15 16 14 15 17 19 20 22 24 25 25 23 21 21 23 23 24 26 33 34 32 35 36 40 46 40 36 33 31 33
21 18 16 16 15 13 13 12 12 12 12 15 15 15 16 15 17 18 17 19 20 20 24 26 26 27 25 22 28 27 27 30 36 39 35 36 38 41 44 39 33 34 35
19 16 18 15 15 15 14 13 12 11 13 13 11 15 14 16 17 18 18 19 20 22 23 26 25 27 27 24 26 32 27 33 31 35 36 43 35 37 40 40 44 36 37
22 19 20 15 16 15 15 13 11 12 11 9 13 13 12 17 16 17 17 20 21 21 23 24 25 25 29 28 28 29 21 21 38 34 29 26 36 45 41 38 41 42 39
25 24 19 20 16 14 13 13 13 13 11 12 10 11 14 15 17 16 20 20 21 22 24 25 26 27 29 32 33 31 30 34 36 40 45 39 24 39 48 46 42 41 40
24 24 25 20 15 14 15 14 13 12 13 12 12 13 14 15 16 20 20 20 22 24 26 26 28 31 33 35 33 33 39 43 42 35 38 43 38 37 41 46 49 46 44
26 24 24 19 18 16 18 13 11 13 13 13 14 14 16 18 21 20 22 23 24 27 28 29 33 31 33 33 36 41 39 38 42 37 33 40 38 54 32 44 45 44 48

GFSSE_850_spd_003.txt.gz
Wind_Speed
5 9 12 10 9 10 12 12 13 13 13 14 12 12 13 13 13 12 13 13 12 11 10 8 7 7 7 7 7 8 7 5 3 3 3 5 7 8 8 7 8 6 6
3 8 9 9 7 7 8 9 12 14 13 14 15 14 13 13 13 13 12 12 11 11 10 11 9 6 4 6 7 8 8 7 6 6 7 6 6 6 6 6 6 6 9
9 7 10 8 8 8 10 9 11 15 17 17 17 16 16 15 15 13 13 12 11 12 12 10 9 7 3 4 5 7 7 9 8 7 8 8 7 5 4 5 6 7 4
6 8 9 7 8 9 10 12 14 16 17 18 19 19 18 17 16 15 14 14 13 12 11 10 9 7 4 4 3 5 6 7 9 9 7 7 7 3 1 2 3 1 3
7 7 6 8 8 9 12 14 16 19 19 18 18 19 19 18 17 17 16 14 12 11 11 11 10 7 5 4 2 0 3 6 9 7 7 4 1 2 2 3 4 5 9
5 5 8 9 11 12 14 16 17 17 17 18 18 18 18 20 19 17 16 15 13 12 10 9 9 8 6 5 3 2 3 4 6 6 7 3 2 4 4 5 7 10 11
7 9 10 10 11 12 14 15 16 17 17 17 17 17 17 18 19 16 18 16 13 11 10 9 7 6 5 6 7 5 6 8 8 7 6 6 7 9 7 10 12 15 14
8 10 12 12 12 14 15 15 16 15 14 14 14 14 13 13 13 13 14 14 13 12 9 8 7 5 5 6 7 8 9 11 9 10 11 9 9 10 10 14 16 16 12
11 10 12 12 10 13 14 12 12 11 11 11 11 9 10 10 7 9 9 9 9 9 9 8 7 6 5 5 8 11 15 14 13 11 16 15 15 13 13 13 16 13 14
15 12 11 10 9 10 12 9 7 7 8 10 10 9 7 6 5 5 6 6 7 8 8 9 9 8 7 7 9 12 14 15 16 16 17 22 19 14 13 16 17 16 15
17 16 16 16 11 9 8 6 4 4 7 10 11 11 10 8 8 4 4 3 2 3 4 7 6 10 11 11 6 8 13 13 16 16 18 16 22 21 15 21 16 17 15
17 19 18 21 16 10 7 3 1 4 8 11 14 15 15 15 15 14 10 9 7 3 3 3 3 3 6 9 7 8 14 14 15 16 15 11 16 12 14 18 19 17 14
19 17 19 15 13 9 5 2 2 7 10 12 14 16 16 15 15 14 13 11 10 11 11 9 6 7 6 5 6 10 14 18 17 15 17 17 17 20 15 19 20 18 15
19 19 15 14 11 9 7 3 5 8 10 12 14 15 14 15 15 14 13 12 11 12 12 13 11 7 8 9 8 6 13 16 18 19 20 23 21 22 18 20 23 21 19
18 19 17 14 13 10 7 7 7 8 10 12 12 13 13 13 13 13 12 12 12 12 13 13 13 11 10 10 11 12 9 11 16 19 21 25 28 23 20 22 22 24 23
20 20 19 17 15 12 11 10 9 9 10 11 12 13 13 13 12 11 11 12 12 14 16 16 17 16 15 13 13 15 17 13 15 21 24 27 26 25 25 25 26 25 24
23 22 20 18 17 15 14 12 10 10 11 11 12 14 14 13 13 13 13 14 16 18 18 18 18 18 18 17 16 15 18 22 22 21 24 26 27 29 29 29 26 25 27
26 24 21 20 19 17 16 14 12 11 11 11 12 13 13 13 12 12 12 13 14 16 17 19 21 22 22 21 23 21 17 20 25 26 26 27 31 30 33 33 30 29 29
28 25 23 22 20 19 17 15 14 12 12 12 12 13 11 12 11 12 13 13 15 18 19 22 21 21 20 22 22 22 22 22 23 29 30 28 28 32 35 37 38 33 29
30 27 24 23 21 20 18 16 14 13 12 12 13 12 11 11 9 11 12 14 15 18 20 22 24 22 23 23 22 24 25 25 22 27 33 34 33 29 33 38 37 40 36
31 28 26 24 24 21 19 16 14 13 13 11 12 10 12 9 10 11 13 13 16 19 19 20 22 23 25 27 30 33 37 26 24 23 33 33 38 38 32 36 42 41 40
31 30 27 26 25 22 19 16 14 13 11 11 11 11 11 9 11 11 12 13 17 18 20 22 22 25 24 25 29 31 30 41 20 27 30 34 31 31 30 31 39 39 45
32 29 28 27 24 22 18 16 15 13 11 10 10 10 8 8 10 10 11 15 16 17 19 20 22 25 26 27 27 28 32 28 40 36 43 38 37 36 34 27 29 38 40
31 27 26 27 26 23 20 18 16 13 11 10 10 9 7 8 8 9 13 16 15 16 18 20 22 22 24 30 31 31 32 29 34 45 38 40 40 34 35 30 27 29 40
30 26 27 28 26 25 21 19 16 13 12 10 10 9 8 8 10 13 15 15 16 18 19 23 22 23 28 29 29 34 34 35 38 34 36 43 45 40 37 39 32 24 31
30 26 27 31 29 25 23 21 17 15 12 12 11 10 9 12 14 16 16 16 17 20 21 23 27 28 27 30 32 34 35 37 39 34 34 39 48 50 40 41 39 36 26

GFSSE_850_spd_006.txt.gz
Wind_Speed
5 5 6 7 5 5 7 10 11 10 13 12 11 10 12 13 11 11 12 12 11 10 9 8 6 5 6 6 7 6 5 4 3 4 5 7 8 9 10 10 9 8 8
6 3 5 5 4 4 7 10 13 13 14 15 14 13 13 13 12 12 12 11 12 12 9 9 7 5 5 6 6 6 7 6 6 6 8 8 9 8 9 9 7 8 9
6 2 4 5 5 6 8 9 13 15 16 16 16 16 15 15 13 11 11 10 10 10 11 9 7 5 4 4 5 6 7 8 8 8 8 9 9 7 7 8 9 10 6
3 6 6 5 5 7 11 12 15 16 16 17 16 16 15 15 14 13 11 9 8 8 8 8 7 6 4 3 3 5 6 8 10 9 8 7 7 6 6 7 8 3 3
2 4 6 5 7 10 12 15 16 16 15 15 16 17 16 15 14 13 12 11 9 7 6 6 6 5 4 3 1 2 4 8 9 8 8 8 5 3 5 8 6 3 5
2 4 7 7 11 13 15 14 14 15 14 14 14 13 14 14 13 13 12 10 8 8 6 5 4 3 2 2 1 1 2 7 7 7 8 7 5 5 5 8 5 5 8
3 8 9 11 13 14 14 14 14 13 12 12 11 10 9 10 10 8 9 8 8 6 5 4 2 1 1 2 2 2 5 7 8 6 7 8 9 10 9 10 9 11 11
7 11 10 12 14 15 15 14 13 11 9 8 8 7 7 8 8 7 6 6 5 4 3 2 1 1 2 4 3 4 5 7 10 9 11 11 12 13 12 13 13 11 11
10 11 13 13 15 15 13 13 11 9 7 4 3 3 3 3 4 3 4 3 2 2 1 1 2 2 2 4 5 5 8 8 11 13 12 13 15 15 15 16 14 12 13
13 12 13 15 14 15 14 11 7 5 4 3 2 3 3 3 4 4 5 5 4 3 3 2 3 1 1 2 5 4 10 9 11 15 16 16 17 15 15 16 15 14 15
17 15 15 17 18 17 13 9 5 2 1 2 4 3 3 2 2 4 4 3 4 4 5 5 6 6 3 3 4 1 6 11 12 12 17 14 19 22 15 17 17 15 17
21 20 18 17 16 15 11 8 5 2 2 3 5 7 8 8 7 6 5 4 3 3 4 5 6 7 6 4 3 5 6 8 11 14 14 15 12 17 20 16 19 18 17
26 24 23 21 18 14 11 8 6 4 4 6 7 9 10 10 9 8 7 6 6 6 4 3 5 8 8 7 6 5 7 8 8 10 12 13 13 13 15 17 20 19 19
26 26 27 25 25 19 14 10 8 6 6 8 9 10 9 9 8 7 6 6 6 7 7 8 6 6 8 10 11 10 10 10 8 6 9 13 16 19 20 20 20 22 20
27 27 26 26 24 20 16 13 10 8 8 9 10 10 10 10 9 8 8 7 6 6 7 7 8 7 7 7 10 14 13 12 11 11 12 12 17 20 23 24 21 21 23
28 28 28 26 24 20 18 15 12 10 11 11 11 11 11 10 10 8 8 7 6 7 8 9 11 12 12 11 10 10 14 17 17 17 17 18 20 20 21 20 23 23 24
31 28 29 28 25 22 20 16 13 13 13 13 13 12 11 10 10 9 8 7 8 10 11 11 12 13 13 13 13 12 13 14 18 22 23 23 23 26 25 24 23 27 27
32 31 30 29 27 24 22 18 15 15 14 14 14 13 12 11 9 7 7 7 8 10 11 13 14 15 16 17 18 18 16 15 16 18 21 26 28 27 30 29 26 25 29
35 32 31 30 28 26 23 19 17 16 15 14 13 12 11 10 8 7 7 7 9 11 13 15 17 18 19 19 20 21 22 21 19 19 21 24 27 29 29 28 28 28 32
36 34 32 30 28 27 24 20 18 17 16 15 13 12 10 9 7 6 6 7 9 11 13 14 16 16 19 19 21 23 25 20 18 25 23 27 30 29 32 31 29 29 33
39 38 36 34 31 30 26 22 20 18 17 15 14 11 10 8 6 6 6 7 9 12 13 14 16 18 20 21 26 31 29 13 32 10 24 26 30 34 33 34 33 31 27
43 42 38 35 33 31 26 23 20 18 18 15 13 11 10 8 8 7 7 7 10 12 12 14 16 19 22 20 25 27 20 35 22 39 33 35 31 32 34 31 34 32 31
48 46 41 37 35 32 28 25 23 20 18 15 13 11 10 10 8 7 7 9 12 12 13 15 15 17 22 20 23 22 17 15 43 37 36 37 39 34 34 31 30 32 36
50 44 40 37 36 33 31 27 24 20 18 14 12 11 11 10 8 8 9 12 12 12 13 14 17 18 17 22 25 23 24 27 32 40 44 42 41 38 37 35 34 34 39
49 43 39 37 35 34 32 28 24 21 17 15 12 11 10 9 10 10 12 14 12 13 14 16 16 20 22 23 21 26 30 30 32 30 41 42 42 38 44 44 45 38 35
49 43 39 36 35 34 32 29 25 22 17 15 13 11 10 10 10 12 14 14 13 13 14 16 20 21 21 22 24 26 27 31 33 34 37 39 41 54 48 45 39 32 29

GFSSE_850_spd_009.txt.gz
Wind_Speed
4 5 4 4 4 6 7 8 9 11 11 10 10 10 11 11 10 10 11 11 10 9 7 6 6 6 5 5 5 4 3 2 2 2 3 5 7 7 8 9 8 8 8
3 5 2 3 4 4 6 9 11 12 12 11 11 11 11 10 9 9 9 9 9 9 9 8 6 5 7 5 5 4 4 4 4 4 5 6 8 7 8 8 7 8 8
6 2 2 4 4 5 7 10 12 12 13 12 12 12 11 10 9 8 7 7 7 7 8 7 7 4 4 4 5 4 4 4 4 5 5 6 7 7 6 7 7 7 4
3 5 2 4 5 6 9 10 12 12 13 12 11 11 11 10 10 9 7 6 5 6 6 6 6 5 4 3 4 4 3 5 6 6 6 7 6 6 6 7 8 4 2
5 5 4 6 8 11 12 13 13 12 11 11 11 11 11 10 9 7 7 7 6 5 4 4 3 5 4 4 3 2 3 5 7 6 6 7 5 5 5 8 8 5 5
3 3 5 9 12 14 14 13 12 10 10 10 9 8 8 7 7 7 6 5 5 5 3 3 2 2 4 3 4 4 3 5 4 3 5 6 5 5 6 8 8 7 9
6 6 9 12 15 16 14 13 12 10 9 7 6 6 5 4 5 3 3 3 3 4 3 3 3 3 2 2 4 5 5 6 6 4 5 7 8 9 10 8 10 10 11
6 12 13 14 16 15 15 14 12 9 7 5 3 2 2 3 3 3 3 1 1 1 4 5 3 3 4 4 2 3 6 7 10 10 10 11 12 14 13 12 11 12 12
10 14 15 16 16 17 16 14 10 7 4 2 1 2 3 3 4 5 5 6 5 5 4 3 5 6 4 6 6 5 7 8 10 12 13 12 12 13 14 13 13 12 13
13 14 16 18 20 18 16 13 9 6 3 2 2 3 4 4 5 6 7 8 7 7 6 4 4 4 2 5 8 9 7 8 9 12 15 16 15 14 13 14 15 12 14
18 16 19 20 20 19 16 13 9 5 3 2 3 2 3 4 5 7 7 8 6 7 6 6 6 4 2 2 7 10 10 9 8 7 8 13 15 14 18 14 12 17 14
23 21 20 21 21 20 17 13 9 6 4 4 3 4 4 4 5 6 6 5 5 6 6 7 7 8 6 5 5 7 9 10 10 7 6 8 10 10 13 19 16 16 18
24 24 22 22 21 20 17 14 11 9 7 5 5 7 8 8 8 8 6 5 4 3 4 5 6 7 8 8 8 8 9 11 11 10 6 4 8 8 10 11 15 16 20
29 26 25 25 24 21 19 16 13 11 9 7 7 10 11 9 8 9 7 7 6 5 4 3 4 5 6 7 9 11 11 11 12 12 11 7 9 9 11 16 17 21 19
31 29 29 27 26 26 24 20 17 14 11 10 10 12 12 10 10 9 8 7 6 6 6 6 6 5 5 6 8 8 10 13 14 14 14 13 13 14 15 15 14 16 20
33 31 31 31 31 29 28 25 20 17 14 12 12 12 12 12 11 11 9 7 7 7 7 8 9 9 9 8 8 10 10 11 12 16 18 19 20 19 19 20 19 16 14
36 32 32 32 32 32 30 26 22 19 15 13 13 12 12 13 13 11 10 8 8 8 8 8 9 10 11 11 11 10 10 11 13 14 15 20 23 24 25 24 23 23 22
38 36 34 34 33 32 30 27 23 20 17 15 14 14 13 13 13 12 10 9 8 8 8 9 10 11 12 13 13 13 12 11 12 15 17 19 20 22 28 30 29 26 28
40 38 37 35 34 33 30 27 24 22 19 17 16 15 14 13 12 11 9 8 7 7 9 10 12 14 15 16 16 15 15 14 11 16 19 22 24 26 27 28 34 32 28
42 39 38 35 34 33 30 28 26 24 21 18 17 15 15 13 12 10 8 7 6 7 9 11 13 14 16 18 18 20 19 13 22 14 24 23 24 27 31 32 32 36 35
43 41 40 38 36 36 34 32 30 27 22 20 18 16 15 13 11 10 8 7 7 8 9 11 12 14 16 19 20 26 19 13 7 23 28 29 25 23 27 33 33 32 38
47 46 44 42 40 38 35 32 29 25 23 21 19 17 16 14 12 10 9 8 8 8 9 10 12 13 15 17 18 22 11 18 8 38 24 29 31 30 28 27 34 32 31
54 52 50 48 44 40 36 33 32 28 25 23 21 19 16 15 13 11 11 9 9 10 10 11 12 13 16 15 16 14 9 7 38 11 34 31 32 31 31 30 29 36 31
57 54 52 49 46 42 38 37 36 32 27 23 20 18 17 15 14 13 12 11 11 12 12 12 12 13 15 19 17 14 16 22 26 28 34 37 33 37 37 36 37 34 34
55 57 53 50 46 43 41 40 36 32 28 24 21 19 17 15 15 14 13 12 13 13 13 12 11 13 15 17 18 18 20 22 23 26 38 48 43 38 41 41 44 39 39
53 55 55 51 47 44 42 39 37 33 29 26 22 19 16 16 15 14 13 12 13 13 12 11 12 14 17 19 19 20 22 23 25 28 34 41 46 46 45 45 45 39 36

GFSSE_850_spd_015.txt.gz
Wind_Speed
8 6 4 4 4 4 6 5 8 8 7 7 8 8 9 7 7 7 7 6 6 6 6 7 5 5 5 6 6 5 4 4 4 5 5 5 5 5 7 7 8 8 9
9 5 5 5 4 4 6 6 8 6 6 7 8 7 8 8 8 6 6 6 5 5 4 4 6 6 5 5 6 5 5 5 5 6 6 6 5 6 7 7 7 8 8
9 4 4 5 5 5 6 7 8 7 6 7 6 6 6 7 6 7 7 5 5 4 4 4 4 4 4 4 5 6 6 5 6 6 7 7 6 5 4 5 6 6 6
10 5 3 4 6 6 8 7 8 7 6 6 5 5 5 4 4 4 3 4 5 4 4 3 3 3 2 3 4 4 5 6 6 6 6 6 4 3 3 3 5 3 4
10 6 3 4 7 9 10 9 8 8 6 5 4 4 3 3 3 3 3 3 3 3 3 4 4 2 2 2 2 3 3 5 5 5 5 5 3 2 1 1 1 2 3
9 6 4 8 11 11 12 11 8 6 5 3 3 1 4 2 2 1 1 2 3 3 3 4 5 5 3 3 2 1 2 3 3 2 2 2 1 1 2 3 4 4 4
9 7 7 11 14 14 12 11 8 7 4 2 1 2 5 5 5 4 3 2 3 4 5 5 4 4 5 6 5 4 2 2 3 1 1 1 2 4 4 4 6 7 7
10 9 9 13 15 15 14 11 9 7 4 2 1 3 4 6 7 8 7 6 5 4 6 5 5 6 7 5 7 5 5 6 7 7 5 5 5 6 7 7 8 8 8
13 11 13 16 17 17 14 12 10 7 4 1 2 4 5 6 8 10 10 10 9 7 6 6 5 6 6 7 8 9 8 9 10 9 8 8 10 10 9 7 8 8 8
16 15 15 19 20 19 15 13 11 8 4 1 2 4 5 7 8 10 11 10 10 9 7 6 5 5 6 7 9 11 11 10 10 9 12 13 12 13 13 10 7 7 10
21 19 18 21 22 20 18 16 14 9 6 3 3 3 5 7 9 10 11 10 10 10 8 7 6 6 4 4 7 10 13 9 9 10 11 15 12 12 12 9 10 8 7
26 24 22 23 24 23 21 19 16 12 8 6 4 4 5 7 9 10 10 10 10 9 9 7 6 6 6 5 5 6 10 12 11 12 11 9 8 9 7 6 5 8 10
26 25 24 25 25 25 24 22 19 15 11 9 7 6 6 7 9 10 9 9 8 8 7 7 6 6 6 6 7 7 8 9 10 11 11 10 9 11 9 7 7 8 9
28 26 25 26 27 27 26 25 22 18 15 12 10 8 8 8 10 10 9 9 8 8 8 7 7 6 5 5 6 7 8 10 10 10 11 11 14 12 13 10 10 9 8
31 29 28 29 28 29 28 28 26 22 18 16 14 11 10 9 10 11 10 9 9 9 9 8 7 7 7 6 7 7 8 7 8 10 12 13 14 15 17 18 15 15 15
33 33 30 31 30 29 30 30 28 25 21 19 17 15 13 11 11 12 11 11 10 10 10 9 8 7 7 8 8 8 8 9 8 8 8 9 11 15 16 17 20 21 19
38 36 34 33 32 31 31 31 30 28 24 22 21 19 16 14 13 13 12 12 11 11 10 10 10 8 8 8 9 10 10 9 9 7 7 7 8 10 11 13 17 22 24
42 41 37 37 35 34 34 32 33 32 29 27 25 23 20 17 14 14 13 13 12 12 11 10 10 10 9 9 9 10 11 10 9 7 6 7 7 8 10 12 14 16 18
42 43 43 41 40 37 36 35 35 34 32 30 29 27 23 19 16 15 14 14 13 12 11 11 10 11 11 11 11 10 11 11 10 8 7 8 11 12 13 15 17 18 18
43 46 46 45 43 41 39 38 38 36 35 34 32 29 25 22 19 16 15 14 14 13 13 12 11 12 13 13 13 12 11 11 11 10 12 12 12 13 14 17 20 22 23
46 49 50 49 48 46 45 44 43 40 39 37 35 31 27 24 20 18 16 15 14 14 14 13 12 11 13 14 16 14 11 10 10 11 10 16 14 13 16 19 19 21 23
46 50 52 53 52 51 49 48 46 42 40 38 35 32 29 25 22 20 18 16 16 15 14 13 12 11 12 13 14 16 7 11 5 12 14 13 16 17 21 19 20 20 21
45 47 53 54 56 56 54 52 49 44 41 39 39 36 32 27 23 21 19 17 16 15 14 13 12 11 11 11 11 7 5 4 17 4 18 14 20 23 23 23 22 21 22
41 46 50 54 58 58 58 57 55 51 48 46 42 37 31 27 25 23 21 19 17 16 15 14 13 12 11 10 10 10 10 12 7 13 15 25 24 27 27 29 25 23 23
35 39 44 53 59 59 60 60 58 54 49 44 39 35 31 28 26 24 22 20 19 17 15 14 13 13 12 11 11 12 13 15 17 22 25 18 22 24 24 26 27 26 25
33 34 38 46 56 61 62 62 61 57 52 45 40 36 33 31 28 26 23 22 19 18 16 14 14 13 13 14 14 15 16 16 17 18 23 26 26 26 24 24 23 30 28

GFSSE_850_spd_021.txt.gz
Wind_Speed
8 7 7 5 4 4 2 5 4 3 4 6 6 5 4 6 7 7 7 7 6 7 6 6 7 5 7 7 7 7 7 7 8 8 7 9 9 11 11 12 12 10 11
11 7 7 6 4 5 3 4 4 2 4 4 4 4 4 4 6 4 4 7 8 7 6 4 6 6 7 8 8 8 8 8 10 11 11 8 9 10 10 9 9 10 10
11 8 6 7 5 6 4 5 3 3 3 1 1 1 2 1 3 3 2 2 5 7 7 4 4 5 6 7 7 7 8 10 13 17 16 7 6 7 7 6 5 7 8
11 8 7 7 7 6 6 6 5 2 1 2 2 2 3 3 3 4 5 4 2 3 4 6 4 3 4 6 7 7 8 11 15 14 8 7 3 3 4 5 4 5 5
11 9 12 6 7 8 7 5 4 3 2 3 4 4 5 5 4 5 5 4 4 4 3 2 4 3 3 3 5 6 7 10 11 8 5 6 2 2 3 3 2 2 2
11 9 10 8 10 11 7 6 5 4 2 2 3 4 5 5 6 6 6 5 5 4 5 4 4 4 3 2 2 3 5 8 9 5 5 2 2 3 2 1 2 2 3
11 10 10 10 12 12 9 8 7 4 2 2 2 3 4 5 6 7 7 6 6 5 4 5 5 5 4 2 1 0 3 6 4 4 4 1 1 1 2 3 3 4 5
12 11 10 11 13 13 11 10 8 6 4 4 2 2 4 5 6 7 8 7 6 6 5 5 6 6 4 3 2 2 1 3 1 2 2 3 3 4 5 5 5 5 5
13 12 11 10 15 15 13 12 10 8 7 6 4 2 3 5 7 9 10 8 8 7 6 5 5 5 4 5 6 4 3 3 2 0 4 6 6 7 9 8 5 4 5
14 14 13 14 16 13 16 16 13 10 9 8 6 3 2 4 6 9 10 10 9 8 7 5 5 4 4 5 5 6 6 6 2 3 11 6 4 5 9 11 8 7 5
15 16 15 16 14 15 14 18 16 14 12 10 8 5 3 3 6 8 10 10 10 9 7 6 5 4 3 3 4 5 4 3 1 2 15 8 8 7 12 7 5 7 7
17 18 17 18 17 17 16 16 17 17 15 13 11 8 5 4 4 9 10 9 10 9 7 6 5 4 3 3 3 3 4 4 3 2 14 9 10 11 9 7 7 7 7
18 18 19 19 20 20 20 18 15 14 14 15 14 11 9 8 6 8 9 10 9 9 8 7 6 4 3 3 3 4 4 3 1 6 12 9 9 10 9 9 7 8 8
19 20 21 22 22 23 23 21 18 18 17 17 18 15 14 11 8 7 7 9 8 8 7 6 7 6 4 2 2 3 3 4 3 4 13 9 10 11 12 13 12 10 10
21 22 24 23 24 24 25 23 22 20 19 18 20 19 16 14 11 9 8 8 9 8 7 7 6 5 4 4 4 4 4 5 6 8 14 10 11 13 14 16 16 16 16
25 25 25 27 27 26 27 27 24 23 21 20 23 23 19 17 14 12 10 9 9 8 8 6 6 6 5 4 7 7 6 6 7 8 10 13 11 12 13 15 17 17 18
28 26 27 27 27 28 28 28 27 27 26 24 28 26 24 21 17 15 12 11 10 9 7 7 6 6 7 6 5 6 9 7 8 9 10 10 13 12 12 14 14 15 16
28 28 28 29 30 30 30 30 27 25 28 31 31 30 28 25 21 18 16 14 13 12 11 10 9 7 7 6 4 7 7 10 8 9 12 10 11 12 13 12 13 14 15
28 29 30 31 32 32 32 31 29 27 30 31 30 32 32 29 25 22 20 18 16 14 12 11 10 8 8 8 7 7 8 10 9 9 11 12 13 13 13 14 13 15 16
26 28 29 32 33 33 33 34 33 30 30 29 28 32 33 33 29 25 24 22 19 17 14 13 11 10 9 10 8 8 8 11 11 11 10 10 11 18 16 16 17 16 19
20 25 27 30 33 34 36 38 38 39 37 35 34 32 35 36 34 30 29 25 22 19 16 14 12 12 10 9 8 6 8 9 9 9 9 7 10 13 15 15 17 16 18
12 18 24 28 31 35 38 41 41 38 39 38 37 38 38 38 36 33 32 28 25 21 19 17 16 13 10 12 6 6 2 7 6 8 9 8 7 11 12 13 14 16 19
19 17 18 23 28 33 35 37 37 32 33 33 39 43 43 40 37 35 34 30 26 23 21 19 18 16 12 12 9 7 4 4 5 8 10 8 10 10 13 14 15 17 17
22 22 22 17 23 30 35 39 40 40 41 47 49 49 46 42 39 38 34 31 28 25 23 21 19 18 17 13 11 10 10 9 4 5 6 8 12 12 13 16 15 17 19
25 26 24 24 20 24 32 40 44 44 41 36 40 45 46 44 41 39 35 33 30 28 24 22 20 19 17 15 14 9 9 8 8 9 13 9 13 14 14 17 18 18 18
31 30 29 27 26 22 28 35 43 48 46 38 36 38 44 46 44 42 37 36 33 30 27 25 23 20 19 16 14 13 11 9 8 10 15 18 18 20 18 16 17 19 22

GFSSE_850_spd_024.txt.gz
Wind_Speed
8 9 6 4 4 5 5 6 4 4 6 6 7 5 7 9 8 10 10 10 9 9 7 10 9 9 10 10 9 10 9 10 10 11 11 11 13 14 14 14 13 13 13
7 9 8 6 5 5 4 4 2 2 1 3 2 2 3 3 5 6 6 9 10 9 7 6 9 9 10 10 9 10 12 15 16 15 16 12 11 12 12 11 11 11 12
10 6 7 7 6 6 4 4 2 1 3 4 3 3 3 3 5 5 5 3 6 9 9 6 6 8 9 10 10 12 15 20 17 14 10 9 7 8 8 8 8 9 9
11 3 7 7 7 6 5 4 2 3 4 5 4 4 4 4 5 6 6 5 5 6 7 8 7 7 8 9 9 12 16 15 13 13 11 7 5 5 5 6 5 6 6
11 9 9 4 7 7 7 4 3 2 2 3 4 5 6 6 7 7 5 5 6 5 4 4 6 7 7 6 8 11 13 12 10 7 5 2 1 3 4 4 3 4 5
13 13 13 9 8 9 7 5 4 2 0 2 3 4 6 6 7 7 7 6 5 4 4 3 3 4 6 5 6 8 10 8 5 6 5 2 3 5 3 2 1 3 5
13 14 13 11 11 9 8 7 6 4 2 1 1 2 4 5 6 7 7 6 5 4 4 4 3 3 3 4 4 5 6 5 2 2 1 1 1 3 3 2 2 3 4
14 11 13 12 12 12 10 10 8 6 4 3 1 0 1 3 5 6 7 7 6 5 4 3 3 2 0 1 2 4 5 3 1 1 3 4 3 3 3 4 4 3 4
14 14 14 14 16 14 13 12 11 9 7 5 4 3 1 1 3 6 7 7 7 6 4 3 2 1 1 2 1 3 4 3 2 2 3 2 5 5 6 5 5 4 3
15 14 15 15 11 17 17 16 15 12 10 8 7 5 3 2 2 5 6 8 7 6 5 3 3 2 1 1 1 2 4 2 1 3 5 4 0 3 3 6 4 5 4
16 17 15 21 17 14 15 19 18 15 13 11 10 8 7 5 3 4 8 8 7 5 5 3 2 2 2 1 1 3 4 4 2 10 12 9 6 2 2 3 2 3 4
18 19 17 20 18 11 14 17 19 19 16 14 13 10 9 7 6 2 5 7 7 6 4 3 2 1 0 1 2 4 5 5 11 15 11 7 7 7 7 5 5 4 4
19 20 20 19 21 15 19 22 19 21 19 18 17 14 13 11 8 5 5 5 6 6 4 3 2 1 0 1 1 2 4 5 9 11 9 8 8 7 8 7 8 5 6
21 23 25 25 25 24 24 27 23 20 18 18 19 18 18 14 12 11 8 6 7 7 6 6 4 2 2 2 2 2 3 5 9 11 9 7 8 9 10 10 10 9 9
24 24 27 25 26 28 27 29 27 21 22 23 23 21 22 18 16 13 10 7 6 6 6 6 6 4 3 3 4 4 5 5 8 11 9 8 9 10 11 12 12 13 14
24 25 27 27 26 26 30 32 33 29 29 27 26 25 25 22 19 17 14 11 9 8 7 7 6 6 6 5 4 5 6 7 7 9 10 9 9 10 11 11 11 12 14
27 27 28 29 31 28 29 32 34 33 31 30 29 29 28 26 22 20 18 15 12 9 9 8 8 8 8 7 7 6 6 6 7 9 10 10 9 9 10 11 11 11 12
26 26 26 30 32 33 29 30 33 34 33 34 33 34 31 29 26 25 21 19 16 13 11 11 11 10 9 9 7 7 10 9 8 10 11 10 10 11 10 10 10 11 12
22 23 26 27 31 34 30 31 33 36 37 37 36 38 35 33 31 29 25 22 21 18 15 13 13 12 11 11 9 10 10 11 12 10 13 11 12 11 11 13 11 12 13
9 18 22 23 23 33 31 30 32 35 37 37 38 40 38 37 35 32 30 27 25 22 19 17 15 13 13 13 12 11 11 13 13 12 14 11 12 17 14 12 11 12 14
17 13 13 7 15 22 31 33 36 35 35 37 38 37 38 38 37 36 34 31 30 26 22 19 17 17 15 14 14 10 9 10 12 12 11 10 8 13 17 15 14 14 13
32 25 16 12 10 11 20 36 40 41 40 39 39 38 39 42 40 39 38 36 33 30 26 23 20 19 17 16 11 9 5 10 13 10 11 10 11 11 14 12 12 16 16
36 33 29 23 20 19 16 20 36 36 36 38 38 43 44 43 44 40 40 38 36 33 29 26 23 22 20 19 16 11 6 6 7 9 12 12 13 12 10 13 17 15 15
33 32 33 31 30 26 25 22 21 40 44 44 45 46 45 46 47 44 41 39 38 35 31 29 25 24 22 22 18 17 17 11 8 6 9 10 11 10 16 16 13 15 18
31 31 33 32 29 33 32 28 32 24 45 46 43 42 44 47 49 48 44 41 39 36 33 31 28 26 24 23 22 17 16 17 15 15 12 16 13 13 13 16 20 21 17
30 30 31 26 28 29 31 33 30 33 29 44 44 41 44 45 47 48 46 44 42 38 36 33 30 27 25 23 22 20 18 16 13 13 13 14 18 19 18 17 15 17 20

GFSSE_850_spd_027.txt.gz
Wind_Speed
11 10 8 6 5 6 7 6 6 7 6 7 7 7 7 7 8 9 11 11 10 9 10 12 12 12 11 11 11 12 12 13 13 13 12 12 14 14 15 14 13 14 14
9 11 9 7 6 6 6 6 3 5 3 4 5 4 4 5 6 6 9 11 11 10 9 10 11 11 11 13 14 14 14 15 16 17 13 10 11 11 12 12 11 12 14
6 10 10 8 7 7 6 5 4 4 4 5 6 4 3 4 6 5 5 6 9 10 10 9 10 10 11 13 15 17 16 14 11 10 12 9 8 8 7 8 9 9 12
7 8 9 9 8 7 7 6 5 5 5 5 5 5 5 6 7 7 6 7 7 7 9 10 9 9 10 12 15 16 14 12 14 14 8 7 6 5 5 5 6 7 8
7 7 10 8 8 8 7 6 5 5 4 4 4 5 6 7 7 7 7 7 7 6 5 7 7 9 9 12 13 13 10 10 11 7 5 3 4 5 4 3 4 5 6
13 9 8 7 8 9 9 7 6 5 4 4 3 4 6 7 7 7 7 6 4 4 4 5 5 7 8 10 11 10 8 10 6 4 1 1 3 4 3 2 3 4 4
16 12 12 11 10 10 10 8 7 6 4 3 3 4 4 6 6 7 7 6 4 3 2 3 5 5 7 9 10 9 6 6 5 2 2 1 1 2 3 3 3 4 4
17 16 14 13 13 10 10 10 9 8 6 4 3 3 4 5 5 6 6 5 4 4 3 2 3 5 6 8 9 8 7 6 4 2 2 2 1 3 2 2 2 3 3
20 17 16 14 12 14 14 13 12 11 9 7 6 4 4 4 4 4 5 5 4 3 3 2 3 5 5 6 9 9 8 8 4 5 3 5 5 3 2 3 4 3 2
20 17 18 16 14 10 16 17 16 14 12 11 9 7 6 5 4 3 4 5 4 3 2 2 2 3 5 6 8 9 9 9 8 5 5 2 3 4 3 1 2 2 3
20 20 19 17 17 15 12 19 19 18 15 13 11 10 9 8 6 3 1 4 3 2 1 2 2 3 4 6 8 10 10 10 8 7 7 9 6 2 4 5 4 6 5
23 22 22 20 19 19 17 14 22 21 19 16 14 13 13 12 9 6 2 1 2 1 1 2 2 3 3 4 6 7 8 10 10 9 8 8 7 5 4 4 6 5 5
25 23 24 22 21 23 23 18 17 21 21 19 17 16 17 16 13 9 6 3 1 1 1 2 3 4 4 5 6 8 9 10 10 10 9 8 7 7 5 4 6 6 7
25 26 26 25 23 25 26 22 21 18 19 23 21 19 21 19 15 13 10 7 5 3 2 3 4 5 6 7 7 8 10 10 10 9 8 7 7 8 7 7 8 8 9
25 28 27 28 25 24 28 26 24 23 22 22 24 24 24 21 19 17 15 12 9 6 5 3 4 6 7 7 7 8 8 9 10 9 8 8 8 9 9 9 10 11 12
23 25 30 31 29 25 28 30 29 28 27 26 25 23 24 24 22 22 20 16 12 10 7 6 6 6 7 8 8 9 9 10 10 10 9 9 8 9 10 9 9 10 11
26 26 27 30 31 31 31 33 34 33 32 30 26 26 28 28 27 25 22 19 16 13 11 10 8 8 9 9 9 10 10 9 10 10 9 8 8 8 9 9 8 9 9
20 20 22 32 34 34 33 34 34 36 36 34 33 33 33 31 30 28 27 23 20 18 15 13 11 11 11 11 11 11 10 9 10 11 10 9 8 8 8 8 7 8 9
11 1 5 5 29 36 31 37 36 35 36 36 35 34 34 34 33 33 31 27 25 23 20 17 15 14 14 13 12 13 12 12 10 11 12 10 10 9 7 8 8 10 10
26 20 14 21 11 9 30 34 35 32 34 35 36 37 36 36 36 36 36 32 31 28 25 22 19 17 16 15 15 15 15 14 13 13 14 13 12 10 8 7 8 9 10
29 27 29 27 22 18 8 13 25 33 37 38 39 39 39 39 37 39 39 38 36 34 29 25 22 21 19 18 17 16 16 16 15 13 12 13 14 11 11 10 10 8 8
34 35 32 30 29 26 22 14 14 20 34 42 42 43 41 40 38 37 38 41 40 38 33 30 28 25 22 20 18 15 9 14 17 14 12 10 11 11 11 12 11 12 13
37 35 36 34 32 29 30 27 17 14 14 25 41 39 41 43 42 40 39 39 42 42 39 35 31 28 26 24 21 15 7 9 9 14 13 11 12 12 11 12 12 13 14
35 30 29 33 34 33 32 32 29 27 28 24 22 40 45 47 46 43 41 40 40 44 43 39 34 31 28 27 24 23 22 12 8 7 14 14 15 13 13 13 15 14 13
29 31 27 27 30 30 29 27 27 29 33 29 28 27 40 49 49 46 44 43 41 43 44 42 38 36 33 30 29 24 23 22 20 16 10 18 19 16 17 17 17 17 19
27 28 29 30 28 27 26 25 25 27 32 37 34 30 32 43 50 49 47 47 45 43 44 44 42 39 35 32 30 27 26 25 24 23 21 17 20 21 21 20 19 17 15

GFSSE_850_spd_030.txt.gz
Wind_Speed
12 10 10 8 7 8 8 8 8 5 6 7 8 7 7 6 6 8 10 10 9 10 12 11 11 11 12 11 11 11 13 13 13 13 13 12 13 14 13 12 12 13 14
8 13 12 9 7 8 8 7 6 4 4 5 5 5 4 4 5 7 9 10 10 9 10 11 11 12 12 11 13 14 14 15 15 14 12 10 10 11 11 10 11 13 14
10 13 13 11 8 7 8 7 6 5 5 5 4 3 3 4 5 7 7 8 10 10 9 9 10 11 12 12 13 14 13 12 12 12 11 9 7 6 7 8 8 10 12
6 11 12 11 9 8 8 7 7 6 6 5 4 3 4 5 6 7 8 8 9 10 10 9 9 11 12 14 13 12 10 11 13 11 9 7 4 5 5 5 6 8 9
8 9 10 11 11 10 9 9 8 6 6 4 4 4 5 6 6 7 6 7 8 10 10 10 9 10 12 13 12 11 9 11 11 8 3 3 3 5 4 3 4 5 5
10 9 10 9 10 10 10 10 9 7 6 5 4 4 5 6 6 6 5 4 5 7 9 10 10 11 12 12 11 10 10 9 7 5 3 0 2 3 2 1 2 3 3
10 9 9 9 7 10 12 11 10 9 7 6 5 5 5 5 6 5 4 4 3 3 4 7 11 12 12 12 11 10 10 9 8 7 3 4 4 2 1 0 1 2 2
6 9 8 7 9 11 13 13 12 12 10 8 7 6 5 5 4 4 4 3 3 3 4 6 8 12 13 13 12 11 10 10 10 9 10 10 5 3 3 3 2 2 1
13 13 13 12 10 12 13 15 14 14 12 10 9 8 7 6 4 3 3 3 3 3 4 5 7 9 10 12 14 12 12 12 11 10 9 8 5 2 2 5 5 3 1
15 18 17 16 14 12 10 16 16 16 14 12 11 10 9 8 7 4 3 2 2 3 4 5 6 8 9 11 13 14 14 13 12 8 6 4 7 8 4 2 3 3 3
19 21 20 18 17 14 12 10 14 18 17 15 14 12 11 10 9 7 4 3 2 2 3 4 6 7 9 12 14 14 14 13 11 8 6 6 7 5 6 5 7 7 7
23 23 23 22 20 17 15 14 12 15 19 18 16 15 13 13 12 9 6 4 2 2 4 4 5 6 7 9 13 13 12 12 11 9 8 8 8 6 5 7 7 7 7
22 25 25 24 22 19 17 17 17 14 18 21 19 18 17 16 15 13 10 7 4 3 3 4 6 7 8 9 11 12 12 12 11 10 9 9 10 8 5 6 7 7 8
28 29 28 28 27 23 21 19 19 18 15 18 21 21 21 19 18 16 13 10 8 6 5 5 6 8 9 10 11 13 12 12 11 11 9 10 9 9 8 8 9 9 10
28 30 32 33 32 29 26 22 21 22 21 18 16 21 25 23 20 18 16 14 12 10 7 7 7 8 9 10 11 12 12 12 12 11 11 11 10 10 10 10 10 11 11
27 30 29 39 36 34 32 27 25 24 23 23 21 20 21 25 23 21 19 18 17 14 11 9 8 8 10 11 12 13 13 12 12 12 12 11 11 11 11 10 10 11 12
4 12 19 23 37 38 36 33 31 28 27 27 24 22 21 21 23 23 23 22 20 18 15 14 12 11 11 11 13 13 14 14 13 12 11 11 11 11 10 10 9 10 11
18 10 2 6 19 26 36 39 38 36 31 31 30 27 25 23 21 22 26 26 23 21 20 19 16 15 13 13 13 14 15 14 13 13 12 11 11 10 10 9 9 9 10
30 23 19 11 2 10 12 18 33 38 37 36 34 31 29 27 25 24 25 26 26 26 25 23 21 18 17 16 15 15 16 16 15 14 13 12 12 10 10 9 9 11 11
27 28 26 23 20 13 4 6 7 17 30 36 36 36 34 31 31 30 27 26 28 29 29 28 25 23 21 18 18 18 18 17 17 17 15 14 14 12 10 9 8 8 10
28 28 29 26 24 21 21 16 9 7 9 20 35 36 37 38 35 34 31 29 29 31 33 31 29 27 25 22 21 21 20 20 21 19 17 15 15 14 12 10 9 9 8
32 31 30 29 26 23 23 23 21 18 10 10 14 29 36 39 40 40 36 34 33 32 34 35 34 33 30 26 24 21 17 20 24 22 20 17 15 14 13 11 11 10 10
33 32 30 27 26 27 27 24 21 18 13 14 11 11 22 33 40 43 43 40 36 35 35 37 37 36 34 31 29 22 8 12 11 20 23 19 17 15 13 13 12 12 13
29 30 28 27 24 23 25 25 23 21 22 22 22 22 18 19 29 44 47 46 43 40 37 37 38 38 36 35 32 31 30 20 10 8 18 21 20 19 16 15 15 15 15
28 32 29 29 23 21 24 27 26 24 25 26 27 28 27 23 22 26 43 51 50 46 41 38 38 40 40 38 37 36 32 31 26 20 13 20 22 22 20 20 19 17 17
28 32 34 25 21 19 23 25 29 33 33 32 31 33 34 33 31 28 28 37 54 53 47 41 39 39 41 41 39 38 37 34 33 30 26 20 22 23 24 23 21 21 21

GFSSE_850_spd_033.txt.gz
Wind_Speed
13 11 10 8 8 10 9 9 9 6 5 6 7 6 4 4 5 7 8 8 9 10 10 11 9 9 8 10 10 11 11 12 12 13 12 13 13 13 12 11 10 12 13
9 12 12 10 9 10 10 9 8 6 5 4 4 3 2 2 4 6 7 8 8 8 9 10 9 9 9 10 12 12 12 13 13 13 11 10 11 10 9 10 10 12 12
8 11 13 11 10 10 10 9 7 6 6 5 4 3 2 3 5 6 6 8 8 8 8 9 9 8 10 11 12 13 13 12 12 12 10 8 7 6 6 6 8 10 10
5 11 12 11 10 10 9 9 8 6 6 5 4 3 3 4 5 6 6 7 8 9 8 9 9 9 9 11 11 10 7 9 11 10 8 5 4 5 4 5 6 7 8
6 9 11 11 10 10 9 10 9 8 6 4 4 3 4 4 5 6 6 6 7 9 10 10 10 10 10 10 9 9 10 11 8 6 4 4 4 4 4 3 3 4 5
5 8 7 10 10 10 9 10 9 8 7 5 4 4 4 4 4 5 5 5 4 6 9 11 11 11 11 11 9 8 9 7 5 3 0 1 2 3 3 2 1 3 4
5 7 7 6 5 7 10 11 10 9 7 6 5 5 5 4 4 3 4 4 4 5 7 9 11 11 11 11 10 8 7 7 6 3 5 4 3 2 1 1 0 1 3
1 4 5 3 4 7 8 11 11 10 9 8 6 5 5 4 3 3 3 3 3 4 6 8 12 12 12 12 11 11 11 10 10 10 10 8 7 6 5 4 3 1 1
5 4 1 3 5 6 8 10 13 12 11 10 8 7 7 6 4 3 2 2 3 3 5 7 9 11 12 13 13 13 14 12 12 11 11 9 7 3 4 5 5 3 2
9 9 10 10 9 8 8 9 12 14 14 13 11 10 9 8 7 5 3 2 2 3 4 6 8 11 12 14 15 16 15 14 13 11 9 8 8 5 3 2 1 3 3
16 16 15 15 14 11 9 9 8 10 15 16 14 13 11 10 9 7 5 3 3 3 4 5 7 9 11 13 16 16 15 15 13 11 9 9 7 6 9 6 7 6 6
18 17 18 19 17 15 13 9 8 8 9 16 17 16 13 12 11 11 8 6 5 5 5 5 6 7 9 12 14 15 15 14 14 12 10 9 9 8 11 8 10 8 8
24 22 18 20 20 20 18 14 10 8 9 9 16 17 16 15 14 14 12 9 8 6 6 6 7 7 9 11 13 14 14 14 13 12 11 11 11 11 8 8 8 8 7
21 27 30 30 28 26 24 21 17 14 11 11 7 14 19 18 17 16 15 12 10 8 7 7 8 9 10 11 12 13 14 14 13 12 12 12 11 11 8 8 9 10 10
23 25 25 33 34 34 32 28 25 21 18 14 12 12 13 15 18 19 18 17 14 12 11 9 9 9 10 11 13 13 13 14 13 13 13 13 12 12 10 10 11 12 12
5 11 18 25 29 34 37 35 32 29 28 24 20 16 14 13 13 18 19 19 18 16 14 13 12 11 11 12 13 14 14 14 14 14 14 14 14 13 11 11 12 13 14
21 15 5 10 17 23 31 37 37 35 33 30 27 24 22 18 15 14 16 19 19 18 18 17 16 15 14 14 14 16 16 16 16 16 15 15 14 13 12 11 11 12 13
24 25 22 14 5 8 20 28 31 33 34 33 33 30 26 25 22 19 17 17 17 19 21 21 20 18 17 16 16 16 17 18 17 16 16 15 14 13 12 11 11 11 12
25 24 24 24 22 11 9 5 16 24 27 28 31 33 32 30 29 27 25 21 18 19 22 23 23 22 20 19 18 18 19 19 19 19 17 15 15 14 13 12 11 12 12
25 24 24 24 23 20 17 10 8 5 11 21 25 26 33 34 34 33 31 28 24 23 23 25 26 25 24 22 21 21 21 21 22 22 20 18 17 16 15 14 13 11 10
27 28 28 26 26 24 23 18 15 15 9 7 8 17 24 31 37 38 36 33 31 30 29 25 25 28 28 26 24 25 25 25 25 25 23 22 21 17 16 15 14 12 10
28 29 29 28 27 25 24 24 21 15 11 9 7 6 10 17 28 34 38 39 38 36 33 31 29 29 30 30 28 26 24 24 28 28 28 26 23 19 18 16 15 13 11
27 29 30 31 27 24 24 25 22 20 20 18 15 12 11 12 12 21 31 36 41 43 40 38 33 33 32 33 32 26 9 12 14 17 24 27 25 23 19 17 16 16 14
24 27 29 30 31 28 23 23 24 25 26 25 24 23 22 20 17 16 16 25 35 44 46 44 39 37 35 35 35 35 35 32 18 11 15 21 25 26 22 20 18 18 17
21 25 28 29 32 31 28 23 22 26 26 26 26 25 23 23 23 22 22 21 22 35 43 47 48 44 40 39 39 38 38 36 36 32 25 21 24 26 26 24 21 20 19
19 22 25 27 28 30 28 22 23 27 29 25 22 19 21 24 24 25 23 24 24 24 28 39 45 50 47 44 41 40 41 40 39 38 35 33 27 24 26 27 26 22 21

GFSSE_850_spd_036.txt.gz
Wind_Speed
11 12 10 8 8 8 7 7 6 4 4 5 6 4 2 4 5 5 7 7 8 9 9 7 7 7 8 8 10 11 11 11 12 12 12 12 12 11 11 10 11 12 13
9 12 11 9 8 9 8 10 7 4 3 3 2 1 0 2 4 4 6 6 6 7 7 6 7 8 8 9 10 11 11 11 12 12 11 11 10 9 9 9 10 11 12
9 10 11 9 8 9 8 8 6 4 3 2 2 2 1 1 3 4 4 6 6 6 6 5 6 7 9 10 11 12 11 10 10 10 9 8 7 6 6 7 10 9 10
5 9 10 10 8 8 8 8 6 5 4 3 3 3 2 2 4 4 4 5 6 6 6 6 5 6 8 9 10 9 9 10 9 8 7 5 4 4 4 6 6 7 6
5 8 9 9 8 8 8 8 7 6 5 3 3 3 2 2 3 4 5 4 5 5 6 6 5 5 7 8 8 8 10 8 7 5 4 3 4 4 3 4 4 4 5
4 7 7 7 7 7 7 8 7 6 6 4 3 3 3 3 3 4 5 4 6 6 7 8 7 5 6 6 7 7 9 6 4 4 3 3 2 2 1 0 2 3 4
4 5 4 5 3 3 5 7 7 7 7 5 4 4 3 3 2 3 4 4 4 5 7 8 9 6 7 7 5 6 6 5 3 1 1 2 2 1 1 1 0 3 1
6 4 5 4 1 2 4 5 7 8 8 7 6 5 5 4 3 2 3 3 4 5 5 8 9 8 7 8 6 7 7 7 6 5 5 6 5 7 6 5 3 1 2
2 3 4 3 1 1 4 5 6 9 10 9 8 7 7 6 4 3 2 3 3 4 5 8 11 4 7 10 10 12 10 10 9 8 8 9 8 5 4 6 5 4 2
3 3 4 3 4 3 5 6 5 8 11 11 11 10 8 8 7 5 4 3 3 3 4 6 8 11 11 10 13 15 13 13 11 10 10 8 6 4 2 1 2 1 2
11 10 10 10 9 8 7 6 5 4 5 10 13 13 11 10 9 8 7 5 4 4 4 5 7 11 14 11 15 16 15 14 13 13 12 9 9 8 10 5 4 4 5
15 15 16 17 18 16 13 10 7 5 4 5 9 14 13 12 11 11 10 8 7 6 6 6 7 8 9 11 13 15 15 15 15 14 12 11 11 10 12 11 12 10 8
16 18 19 22 22 21 21 18 16 11 10 8 7 9 12 14 14 13 12 12 10 8 8 7 7 7 8 9 11 14 14 14 14 14 13 12 12 12 12 15 8 8 8
13 17 20 23 26 26 25 25 23 20 18 16 14 12 15 15 16 16 14 14 13 11 10 8 8 8 9 10 11 12 13 13 13 13 13 13 12 12 11 9 9 10 11
7 11 18 22 25 25 28 30 29 26 24 22 18 17 15 15 16 18 17 16 15 14 13 11 10 10 10 11 11 12 12 13 13 13 13 13 13 12 11 10 10 12 12
13 9 10 16 18 22 24 28 32 32 30 29 25 22 20 18 16 16 18 18 18 17 15 14 13 13 12 12 12 12 12 13 13 14 14 14 14 13 12 11 12 12 14
23 19 15 13 9 11 16 19 24 30 32 32 30 26 25 23 21 18 18 19 18 17 18 18 17 17 16 15 14 14 14 14 15 15 15 15 14 14 13 12 12 13 15
23 24 23 20 16 14 12 10 16 19 23 28 32 31 30 29 27 26 21 19 17 18 19 19 20 20 19 18 17 16 16 16 16 17 17 16 15 14 14 13 12 13 13
24 23 22 21 20 18 14 13 12 10 11 19 25 28 30 30 31 31 30 25 23 21 20 20 21 22 22 21 19 19 19 19 19 18 18 17 16 16 15 14 13 13 13
24 25 26 25 23 19 15 11 9 8 9 9 9 15 24 28 31 31 33 33 30 28 27 25 23 22 24 23 22 22 22 22 22 22 21 21 19 19 17 16 15 14 13
24 26 28 28 29 29 27 23 17 13 11 9 9 9 9 15 23 29 33 33 34 34 31 30 29 25 24 24 24 25 27 26 26 25 24 24 24 21 20 18 17 16 14
23 26 27 29 30 31 32 31 27 22 17 14 13 12 11 10 12 17 23 30 35 35 37 35 34 33 30 27 27 27 26 25 29 27 26 27 27 24 23 21 20 18 16
21 24 26 29 31 33 31 29 27 24 23 22 20 18 17 16 15 15 15 18 28 34 37 38 39 39 38 34 31 25 11 14 18 19 18 20 24 26 25 23 22 20 18
17 20 22 23 23 24 25 25 24 24 26 26 23 21 20 19 18 17 18 19 18 19 28 36 39 44 42 42 37 35 34 32 21 17 20 19 18 21 23 24 23 22 20
18 20 22 23 23 25 26 26 26 24 26 28 26 20 17 19 19 19 19 18 18 21 23 24 29 38 43 43 46 42 38 37 35 35 33 30 29 26 22 24 25 24 23
16 18 21 21 22 24 23 24 25 28 30 30 26 22 20 23 24 24 24 23 21 19 20 23 24 27 34 41 45 47 47 41 38 37 37 37 35 31 25 23 26 27 26

GFSSE_850_spd_042.txt.gz
Wind_Speed
6 9 9 9 9 7 5 4 2 2 5 4 2 3 4 4 6 3 5 5 6 7 6 4 5 6 6 9 8 9 9 9 10 10 10 10 10 11 12 13 13 14 14
8 9 9 8 8 8 6 5 3 5 3 2 1 3 5 6 4 3 3 4 4 6 6 5 5 7 6 7 7 6 7 7 7 7 8 7 8 9 9 11 12 14 14
9 10 8 8 7 8 6 7 4 3 2 1 2 3 3 4 2 4 4 3 3 3 4 5 4 7 7 7 7 7 7 6 6 7 9 6 5 6 6 9 10 12 12
8 10 9 7 5 6 8 7 3 2 1 2 3 4 2 1 3 5 3 3 2 2 2 4 5 6 5 6 6 5 6 6 5 5 5 3 1 4 4 7 8 10 10
8 9 7 5 4 4 3 3 3 2 2 3 4 4 3 2 2 4 2 3 3 3 4 3 4 3 4 2 1 2 5 5 4 6 3 2 3 3 4 6 7 8 8
8 7 4 3 1 1 0 1 1 2 3 4 5 5 4 3 2 2 2 4 3 4 5 7 4 4 3 2 1 2 3 3 6 3 4 4 4 3 5 5 4 5 7
7 7 4 5 3 3 2 2 3 3 3 4 6 6 6 5 4 4 4 5 5 4 6 6 7 5 4 3 3 3 3 1 2 2 3 2 3 4 3 4 5 5 4
6 7 5 7 6 3 1 3 3 4 5 6 7 7 7 7 6 6 5 5 5 5 6 6 9 7 8 7 5 5 6 3 2 1 2 3 5 6 7 7 6 5 4
6 6 5 2 2 2 2 4 3 4 6 6 7 7 6 7 6 6 6 6 6 5 5 6 10 11 8 10 9 9 8 7 3 4 2 3 6 3 4 5 5 5 4
4 4 3 3 2 2 4 5 4 4 5 6 7 8 8 7 7 7 6 6 6 5 5 6 10 12 11 11 14 13 11 10 6 6 4 6 3 4 3 2 3 6 5
1 1 3 5 5 6 6 7 8 6 6 7 6 7 9 7 9 8 8 8 7 6 5 5 9 11 13 14 11 18 16 8 8 7 6 11 8 9 9 8 5 5 4
2 5 5 7 9 9 11 8 8 8 6 6 6 6 6 9 10 11 11 10 10 10 8 7 7 9 10 10 10 13 15 18 14 11 8 13 11 12 11 12 13 12 11
4 6 10 13 15 14 15 15 12 11 9 9 9 9 8 9 11 12 13 13 12 12 12 11 10 9 10 11 11 9 10 10 10 14 12 13 13 13 12 12 13 16 16
9 8 10 12 13 15 19 20 19 17 15 12 12 12 11 11 11 11 12 13 13 14 14 14 13 13 12 11 11 10 10 10 10 10 12 14 14 15 14 13 13 17 19
15 14 14 12 10 8 8 14 15 19 18 18 18 15 17 18 15 14 14 14 14 14 14 16 16 16 15 14 13 12 11 11 11 11 11 15 15 14 15 13 13 13 18
16 17 17 17 17 14 11 8 14 17 18 17 17 19 19 20 21 23 18 17 18 16 15 16 17 18 18 18 16 15 14 13 13 14 14 15 15 15 15 14 13 13 15
16 16 17 18 18 17 16 13 10 9 13 17 20 22 22 22 23 27 29 25 18 17 20 17 18 20 20 20 19 18 17 16 16 15 15 15 16 15 15 15 14 14 16
14 16 17 18 18 18 17 15 13 13 12 11 12 14 19 24 27 31 31 34 31 30 27 26 23 22 21 20 19 18 18 19 18 17 17 16 16 15 16 16 15 15 15
12 13 14 16 17 17 16 15 14 13 13 12 12 13 15 16 17 21 27 31 31 30 30 29 27 27 22 20 21 18 18 20 21 20 20 19 17 17 17 17 17 17 16
10 11 13 14 17 17 15 15 14 14 14 14 15 15 16 16 18 18 18 20 24 28 33 29 27 23 27 20 18 19 20 22 23 23 22 21 21 20 19 19 18 18 18
8 10 12 14 16 16 16 18 18 18 17 16 16 19 20 20 20 21 18 19 19 22 23 29 31 28 27 22 20 21 22 21 22 25 25 24 23 24 23 22 21 20 20
6 8 10 13 15 16 16 18 18 18 18 19 17 18 18 19 20 20 17 17 16 17 19 22 28 31 30 30 23 17 21 20 24 25 25 25 25 25 26 26 25 24 22
7 9 10 12 15 16 15 17 20 20 20 20 19 20 19 21 20 19 18 18 18 17 17 17 19 25 33 28 33 26 13 20 18 17 23 24 24 26 27 26 26 25 25
10 11 11 13 17 17 18 21 24 25 26 24 24 23 23 21 20 19 20 21 21 20 20 18 17 17 21 31 30 33 41 25 12 15 14 20 22 22 22 23 23 25 25
11 13 16 15 20 21 24 25 25 26 27 28 27 28 26 25 23 22 22 22 23 23 22 22 20 18 19 21 27 32 35 41 36 26 24 13 19 23 23 23 23 24 24
9 13 15 21 23 26 27 27 27 29 30 32 31 32 32 29 27 26 25 23 24 25 24 24 23 22 20 21 21 25 29 26 31 32 33 32 26 17 23 26 26 27 27

GFSSE_850_spd_045.txt.gz
Wind_Speed
2 4 6 6 7 5 4 4 4 6 4 2 4 6 3 3 4 6 7 6 7 8 8 8 7 8 8 8 9 9 10 10 10 10 11 11 13 13 14 13 14 15 15
8 6 6 6 5 5 5 3 2 3 0 2 4 5 4 2 1 2 5 5 5 6 7 8 6 6 7 7 7 7 7 8 9 10 11 10 11 11 11 12 13 15 15
10 7 5 6 5 5 6 2 2 1 1 3 4 5 2 1 1 1 1 3 2 3 5 7 9 10 8 8 7 7 7 8 10 14 11 8 10 9 10 12 13 13 14
8 6 6 3 3 4 6 6 2 2 3 5 6 6 4 3 1 1 1 3 1 1 1 4 6 5 6 6 5 5 6 8 10 12 10 3 5 7 8 10 10 12 13
7 6 5 1 2 1 2 0 2 2 4 6 8 9 7 5 3 4 5 1 3 3 3 1 3 4 3 2 0 2 5 7 10 9 2 2 1 4 6 8 8 9 8
6 5 2 2 2 3 2 1 2 2 2 4 6 7 7 6 6 5 5 6 7 4 4 4 2 3 1 2 1 2 4 6 9 3 6 6 4 3 5 5 5 7 9
6 4 3 3 2 2 0 2 3 2 3 3 4 5 5 5 4 5 6 6 6 5 5 4 6 5 5 3 3 3 4 4 4 2 3 3 8 3 3 5 5 6 6
6 6 2 4 2 2 2 3 3 4 5 5 5 5 5 5 4 4 5 5 5 5 4 6 9 8 8 7 5 4 5 2 4 2 1 2 7 6 4 5 5 4 3
5 5 4 2 7 5 5 5 4 4 6 7 7 7 6 6 6 5 5 5 5 4 4 5 9 10 10 10 11 9 7 5 4 3 1 3 7 3 2 3 2 2 3
3 3 1 1 1 5 5 6 7 8 5 4 6 8 9 9 8 8 8 6 5 5 4 5 8 10 11 11 13 14 12 10 4 6 3 11 9 4 3 1 2 4 4
1 1 2 4 5 8 7 8 15 8 9 7 5 4 8 6 9 10 10 10 9 9 7 7 8 9 11 13 15 16 16 9 10 6 6 15 11 7 8 8 6 5 4
3 4 5 7 7 8 8 8 9 7 9 9 7 9 8 6 9 11 14 12 12 12 11 10 9 9 10 10 12 14 16 11 14 13 10 17 15 11 10 11 11 11 10
7 8 9 9 9 10 12 15 13 13 10 10 9 9 8 8 8 10 9 14 13 12 12 13 12 11 9 11 12 11 10 11 10 12 14 19 16 14 12 12 12 12 14
11 12 13 13 10 7 7 12 18 17 17 15 14 11 10 10 9 10 10 10 11 11 11 11 12 13 14 14 12 11 11 11 11 12 13 18 17 15 14 13 13 14 15
12 13 15 15 14 13 9 9 12 16 15 18 19 16 16 16 14 13 12 12 12 12 12 12 14 13 15 14 14 13 13 13 13 13 14 20 19 16 16 14 13 14 15
12 13 14 16 15 14 14 13 12 10 11 14 17 19 19 20 21 22 20 15 14 14 14 14 14 14 14 14 15 16 16 14 15 15 15 18 17 17 17 16 15 15 15
11 12 14 15 15 15 13 13 12 12 11 10 11 12 14 19 23 25 27 29 24 18 16 17 17 16 17 16 17 16 17 17 17 17 18 18 18 16 18 17 16 16 16
8 10 12 13 14 14 14 13 12 12 11 11 10 11 12 14 13 15 20 26 31 32 30 29 22 20 20 18 18 18 18 19 19 18 18 20 19 17 17 18 18 17 17
7 8 10 11 13 13 13 12 12 12 12 13 13 13 14 15 15 15 14 13 20 24 26 28 23 25 22 21 20 20 20 21 21 20 20 23 23 20 20 18 17 18 18
5 7 9 11 13 14 12 13 13 13 14 14 14 14 16 16 17 17 16 15 15 15 22 20 27 29 23 25 22 22 22 24 25 24 23 22 26 24 22 22 20 19 19
3 5 8 11 13 15 15 16 16 17 16 17 16 16 18 17 17 18 18 17 16 16 16 17 20 22 31 23 25 26 28 24 26 27 28 26 25 28 26 25 25 22 21
4 6 8 11 13 14 14 15 16 18 20 21 21 20 20 19 20 19 19 19 18 19 18 17 18 20 22 29 24 24 26 27 30 29 28 27 27 27 29 27 27 25 23
7 9 10 11 12 15 15 17 19 21 23 23 22 24 24 22 23 22 22 21 21 21 21 19 19 19 23 23 30 22 14 16 19 28 31 31 26 27 30 27 28 27 26
11 11 11 12 14 16 18 21 23 25 27 25 28 28 27 26 25 24 24 24 25 24 23 22 20 21 21 23 21 29 37 27 7 17 15 23 27 26 28 29 28 28 27
10 10 11 13 15 19 22 23 26 27 29 32 31 30 31 30 29 29 27 27 27 26 26 25 24 23 24 24 24 22 25 35 40 33 20 20 26 29 28 27 26 27 27
7 9 11 14 17 22 24 25 27 30 30 32 32 33 34 33 31 31 29 30 30 30 28 27 27 26 25 26 26 24 24 23 28 34 42 33 26 18 24 26 26 26 27

GFSSE_850_spd_048.txt.gz
Wind_Speed
6 4 5 5 5 5 6 4 6 5 4 6 7 7 5 4 6 8 8 8 9 10 11 9 10 9 10 10 11 12 12 12 12 12 13 14 14 14 14 15 15 17 17
6 5 5 5 4 5 5 3 3 4 4 6 7 6 6 5 4 4 6 5 7 8 10 10 9 8 10 9 9 9 11 12 13 13 12 13 12 11 12 13 15 16 17
3 4 4 3 3 5 5 1 2 3 4 6 7 7 5 5 5 3 2 4 4 5 7 8 10 10 11 9 9 9 11 13 11 10 10 10 12 9 11 13 14 15 17
3 5 7 4 3 5 4 3 1 2 4 7 8 8 6 5 3 2 5 2 3 2 4 4 6 6 7 6 7 8 10 14 12 9 7 7 6 7 10 11 13 14 16
6 8 3 2 3 4 2 0 2 2 4 5 7 7 7 5 3 2 4 3 2 4 1 1 1 2 3 2 3 6 10 13 11 7 3 4 2 6 7 7 10 11 12
6 3 1 1 2 2 1 1 2 2 2 3 4 5 5 5 4 3 3 3 3 4 2 3 1 2 2 2 1 4 8 10 9 5 3 3 4 4 4 5 6 7 9
5 3 5 3 2 1 1 2 3 3 2 3 4 5 5 4 3 3 4 4 4 3 3 3 5 5 6 4 2 3 6 8 6 3 2 4 3 5 0 2 4 5 5
7 1 10 10 8 7 5 4 6 5 5 5 6 6 6 5 5 4 5 4 4 4 3 5 7 7 7 7 4 3 5 4 5 2 5 8 7 6 5 2 2 1 2
6 2 3 5 9 10 9 8 10 10 8 6 7 6 7 7 7 6 6 5 5 5 5 6 6 8 9 8 8 7 6 5 6 2 6 8 7 7 4 2 1 1 2
4 4 4 7 7 7 11 9 11 12 11 9 8 7 9 9 8 8 8 7 6 7 7 7 7 8 9 9 9 9 10 9 7 7 11 12 12 9 4 2 2 2 3
1 3 4 5 5 4 2 7 8 8 9 10 10 10 14 11 9 15 12 11 11 10 10 10 10 9 9 11 11 11 12 11 10 7 10 15 15 13 9 8 6 3 4
5 5 5 5 8 4 9 5 5 8 7 10 11 13 8 12 7 11 19 18 15 13 12 11 11 12 11 12 11 9 14 13 13 15 14 16 18 16 12 11 11 10 8
6 7 8 8 5 5 7 11 13 14 10 12 10 7 8 7 6 12 15 16 17 16 13 13 11 11 12 11 9 13 13 11 12 14 19 20 19 17 16 13 12 12 12
9 11 11 11 8 3 3 11 11 14 16 14 16 16 13 14 12 10 6 10 17 19 18 13 15 16 17 14 15 16 15 13 13 11 18 19 16 17 18 15 14 14 14
10 10 13 12 13 10 9 10 10 7 9 13 15 17 20 19 19 19 17 13 9 12 17 16 16 16 17 20 17 15 14 15 16 14 19 21 22 20 19 17 16 16 15
10 11 13 15 14 12 12 13 13 10 11 12 10 10 13 19 22 23 23 24 23 18 14 15 17 18 18 18 20 18 20 20 20 18 23 24 26 22 19 19 17 17 16
9 8 12 12 11 11 13 14 14 15 11 10 9 9 13 13 13 14 17 22 26 29 29 22 21 20 21 21 22 22 23 23 23 23 25 28 28 22 18 19 19 18 18
7 9 10 11 11 10 11 9 8 10 9 11 11 14 15 16 16 17 15 15 17 19 22 28 32 29 27 26 27 28 27 25 26 26 27 29 29 25 21 19 20 19 20
5 6 7 8 10 12 9 9 9 8 10 13 14 15 16 16 16 20 21 19 15 18 23 22 21 25 30 34 29 26 28 25 26 29 29 29 31 30 25 22 20 20 21
4 4 6 8 9 11 12 12 14 14 12 13 18 20 17 20 20 18 21 22 19 20 19 20 23 23 25 28 29 29 28 25 30 30 33 31 32 33 30 27 25 23 22
1 2 4 8 12 14 18 19 19 21 20 23 24 21 20 21 24 23 23 20 21 20 20 19 22 22 26 22 31 33 32 35 26 29 34 35 32 35 33 31 30 27 24
5 5 7 9 13 16 18 17 19 19 22 27 25 22 20 24 26 25 26 24 21 22 21 22 21 21 24 22 24 26 25 31 39 37 31 34 34 34 35 33 32 31 28
6 8 13 16 12 13 15 19 22 26 28 30 28 28 30 27 25 27 29 25 24 25 26 25 23 22 24 24 23 20 13 12 20 22 32 37 35 33 36 36 33 31 31
9 10 14 12 14 14 17 21 26 27 30 30 32 32 32 28 29 28 28 29 29 28 28 27 25 23 23 22 20 22 23 27 25 13 29 22 29 34 36 35 35 32 30
11 13 15 16 13 17 21 25 27 28 30 34 33 33 35 33 31 29 30 29 32 32 31 32 30 27 27 30 28 25 26 27 27 32 29 35 22 11 27 34 33 33 30
9 12 13 15 17 19 23 26 27 30 31 33 33 33 34 32 31 30 29 30 31 30 32 33 32 34 33 28 28 28 28 26 26 28 30 38 42 34 24 21 19 26 29